Tracking 19827 objects as of 23-Aug-2019
HD Live streaming from Space Station
objects crossing your sky now

COSMOS 2251 DEB

Track COSMOS 2251 DEB now!
10-day predictions


NORAD ID: 35785
Int'l Code: 1993-036ASF
Perigee: 700.1 km
Apogee: 787.3 km
Inclination: 73.9 °
Period: 99.5 minutes
Semi major axis: 7114 km
RCS: 0.0101 m2 (small)
Launch date: June 16, 1993
Source: Commonwealth of Independent States (former USSR) (CIS)
Launch site: PLESETSK MISSILE AND SPACE COMPLEX (PKMTR)

Note: This is SATELLITE DEBRIS
aabbcc
Your satellite tracking list
Your tracking list is empty




NASA's NSSDC Master Catalog

Two Line Element Set (TLE):
1 35785U 93036ASF 19229.11493959  .00000854  00000-0  23860-3 0  9992
2 35785  73.9467 154.8773 0061288  61.9736 298.7603 14.46659899535489
Source of the keplerian elements: AFSPC